Tracking 30160 objects as of 13-Feb-2025
HD Live streaming from Space Station
objects crossing your sky now

STARLINK-33600

Track STARLINK-33600 now!
10-day predictions
STARLINK-33600 is classified as:


NORAD ID: 62772
Int'l Code: 2025-015Q
Perigee: 390.7 km
Apogee: 391.7 km
Inclination: 53.2 °
Period: 92.2 minutes
Semi major axis: 6762 km
RCS: Unknown
Launch date: January 21, 2025
Source: United States (US)
Launch site: AIR FORCE WESTERN TEST RANGE (AFWTR)
Your satellite tracking list
Your tracking list is empty




NASA's NSSDC Master Catalog

Two Line Element Set (TLE):
1 62772U 25015Q   25043.91668981 -.01477916  00000-0 -19140-1 0  9992
2 62772  53.1599 335.8231 0000800  88.2250 295.4634 15.61241711  4798
Source of the keplerian elements: AFSPC